This demonstration page uses our WeatherBlox Daily Observations layout. Learn more.

Left ArrowRight Arrow

53.62937, 11.41316

Hourly Observations for September 5, 2015

Temp ( °F °C ) Dew Point ( °F °C ) Humidity (%) Winds ( mph kmh ) Pressure ( in mb ) Visibility ( mi km ) Precip ( " mm )
6:20 am 06:20 Mostly Cloudy 55 13 54 12 94 94 WSW 17 28 29.68 1005 30 48 N/A
6:50 am 06:50 Mostly Cloudy 55 13 54 12 94 94 WSW 17 28 29.68 1005 30 48 N/A
7:20 am 07:20 Partly Cloudy 55 13 52 11 88 88 WSW 17 28 29.71 1006 30 48 N/A
7:50 am 07:50 Mostly Cloudy 55 13 52 11 88 88 WSW 16 26 29.71 1006 30 48 N/A
8:20 am 08:20 Partly Cloudy 55 13 54 12 94 94 WSW 17 28 29.71 1006 30 48 N/A
8:50 am 08:50 Mostly Cloudy 55 13 52 11 88 88 WSW 17 28 29.74 1007 30 48 N/A
9:20 am 09:20 Mostly Cloudy 57 14 54 12 88 88 WSW 18 30 29.71 1006 30 48 N/A
9:50 am 09:50 Mostly Cloudy 57 14 54 12 88 88 WSW 16 26 29.71 1006 30 48 N/A
10:20 am 10:20 Mostly Cloudy 57 14 54 12 88 88 WSW 18 30 29.74 1007 30 48 N/A
10:50 am 10:50 Mostly Cloudy 57 14 52 11 82 82 WSW 17 28 29.71 1006 30 48 N/A
11:20 am 11:20 Mostly Cloudy 59 15 52 11 77 77 WSW 22 35 29.71 1006 30 48 N/A
11:50 am 11:50 Mostly Cloudy with Light Rain 59 15 52 11 77 77 WSW 20 31 29.71 1006 30 48 N/A
12:20 pm 12:20 Mostly Cloudy with Light Rain 57 14 54 12 88 88 SW 22 35 29.71 1006 30 48 N/A
12:50 pm 12:50 Cloudy 61 16 54 12 77 77 SW 23 37 29.71 1006 30 48 N/A
1:20 pm 13:20 Windy with Rain Showers Likely 59 15 54 12 82 82 WSW 24 39 29.71 1006 30 48 N/A
1:50 pm 13:50 Cloudy with Light Showers 55 13 52 11 88 88 W 17 28 29.71 1006 30 48 N/A
2:20 pm 14:20 Mostly Sunny 59 15 54 12 82 82 WSW 17 28 29.71 1006 7 11 N/A
2:50 pm 14:50 Mostly Cloudy 59 15 52 11 77 77 W 22 35 29.71 1006 30 48 N/A
3:20 pm 15:20 Mostly Cloudy 59 15 52 11 77 77 W 18 30 29.71 1006 30 48 N/A
3:50 pm 15:50 Cloudy 59 15 52 11 77 77 WSW 17 28 29.71 1006 30 48 N/A
4:20 pm 16:20 Mostly Cloudy 61 16 50 10 68 68 W 17 28 29.71 1006 30 48 N/A
4:50 pm 16:50 Partly Cloudy 61 16 46 8 59 59 W 22 35 29.71 1006 30 48 N/A
5:02 pm 17:02 Mostly Cloudy 61 16 46 8 59 59 W 21 33 29.71 1006 30 48 N/A
5:20 pm 17:20 Partly Cloudy 59 15 46 8 63 63 W 17 28 29.71 1006 30 48 N/A
5:50 pm 17:50 Mostly Sunny 59 15 46 8 63 63 WSW 20 31 29.74 1007 30 48 N/A
6:20 pm 18:20 Mostly Sunny 59 15 46 8 63 63 W 18 30 29.74 1007 30 48 N/A
6:37 pm 18:37 Mostly Cloudy 59 15 45 7 59 59 W 18 30 29.74 1007 30 48 N/A
6:50 pm 18:50 Mostly Cloudy 59 15 45 7 59 59 W 24 39 29.74 1007 30 48 N/A

Powered by AerisWeather